Location: Cointrin
(46.2167°N, 6.1167°E)
Time: 06:34:02
(UTC+00:00)

SL-16 R/B - Pass Details

Date: 08 February 2023
Orbit: 842 x 846 km, 71.0° (Epoch: 25 March)

Event Time Altitude Azimuth Distance (km) Brightness Sun altitude
Rises 17:17:51 0° 221° (SW) 3,388 6.4 -5.3°
Reaches altitude 10° 17:20:21 10° 226° (SW) 2,458 5.8 -5.8°
Maximum altitude 17:25:50 52° 302° (WNW) 1,048 3.1 -6.7°
Drops below altitude 10° 17:31:23 10° 19° (NNE) 2,475 4.3 -7.6°
Sets 17:33:55 0° 24° (NNE) 3,414 5.0 -8.0°
